Location: Pedimozza
(42.0500°N, 9.3500°E)
Time: 12:42:32
(UTC+00:00)

CZ-2C R/B - Pass Details

Date: 19 August 2019
Orbit: 704 x 907 km, 98.1° (Epoch: 22 October)

Event Time Altitude Azimuth Distance (km) Brightness Sun altitude
Exits shadow 18:58:43 10° 122° (ESE) 2,210 4.7 -7.9°
Reaches altitude 10° 18:58:50 10° 121° (ESE) 2,172 4.7 -7.9°
Maximum altitude 19:02:41 25° 66° (ENE) 1,395 4.0 -8.6°
Drops below altitude 10° 19:06:34 10° 12° (NNE) 2,195 5.6 -9.2°
Sets 19:09:10 0° 359° (N) 3,135 6.6 -9.6°
